User: anonymous   Login
Location: Austin
(30.3000°N, 97.7500°W)
Time: 12:16:31
(UTC-06:00)
Language:

Meteor 1-25 Rocket - Orbit

View from above orbital plane
View from above orbital plane
View from above satellite
View from above satellite

Ground track
Ground track

The orbit data is extracted from the following two-line orbital elements,

1 08846U 76043B   23333.60368269  .00000224  00000-0  12180-3 0  9993
2 08846  81.2254 178.5964 0037724 206.3912 153.5337 14.08753052442514
Epoch (UTC): 29 November 2023 14:29:18
Eccentricity: 0.0037724
inclination: 81.2254°
perigee height: 836 km
apogee height: 891 km
right ascension of ascending node: 178.5964°
argument of perigee: 206.3912°
revolutions per day: 14.08753052
mean anomaly at epoch: 153.5337°
orbit number at epoch: 44251

The dashed part of the orbit path shows where the satellite is in the earth's shadow,  

DLR